Meath Environmental Platform

Observations for Trim Patrick St

Time AQI Temp °C Hum % Pres Pa CO μg/m³ H₂S μg/m³ NO μg/m³ NO₂ μg/m³ O₃ μg/m³ SO₂ μg/m³ PM1 μg/m³ PM2.5 μg/m³ PM10 μg/m³
Saturday 8 August 2026
13:48 2 29.8 34 69,193 0 0 1.01 10.48 75.13 12.44 2 7.41 8.15
13:47 2 29.8 34 69,206 0 0 1.07 9.39 59.31 12.22 2 8.24 9.06
13:46 2 29.8 34 69,193 0 0 0.97 10.93 77.11 12.14 2 7.4 8.14
13:45 2 29.7 34 69,201 0 0 0.98 13.33 93.64 12.18 2 7.39 8.13
13:44 2 29.7 34 69,183 0 0 0.95 10.96 77.05 11.8 2 7.41 8.15
13:43 2 29.7 34 69,191 0 0 0.97 10.96 72.76 11.75 2 8.21 9.03
13:42 2 29.7 35 69,201 0 0 0.92 10.52 62.13 11.7 2.86 8.92 9.81
13:41 2 29.6 36 69,181 0 0 0.95 11.92 100.57 12.51 2 8.12 8.93
13:40 2 29.6 35 69,189 0 0 0.94 10.39 75.83 12.07 2.86 8.13 8.95
13:39 2 29.5 34 69,167 0 0 1.03 11.86 99.81 11.81 2 8.2 9.02
13:38 2 29.5 34 69,167 0 0 1.03 10.99 72.82 11.38 3.71 9 9.9
13:37 2 29.5 34 69,169 0 0 1.08 10.88 72.98 11.35 2 7.44 8.19
13:36 2 29.5 35 69,177 0 0 1.01 7.69 70.24 12.02 3.71 9.74 10.72
13:35 2 29.5 34 69,191 0 0 1.02 11.13 76.08 11.89 2 8.19 9.01
13:32 2 29.4 35 69,189 0 0 1.01 9.68 68.05 11.97 2.86 8.16 8.98
13:31 2 29.3 35 69,177 0 0 1.01 9.01 63.86 11.26 2 7.33 8.07
13:30 2 29.3 35 69,153 0 0 1.1 10.68 57.4 11.25 2 8.16 8.98
13:29 2 29.2 36 69,151 0 0 1.06 10.42 72.32 11.42 2 7.3 8.03
13:28 2 29.1 36 69,149 0 0 1.08 11.57 84.97 11.64 2 8.07 8.88
13:23 2 28.9 37 69,143 0 0 1.08 10.25 72.46 11.35 2 7.26 7.98